When you browse on this site, cookies collect data to enhance your experience and personalize the content and advertising you see.
Visit our Privacy Policy to learn more. By continuing to use the site, you agree to this use of cookies and data.
  • In Austria
  • List of Countries
  • For 7 days
  • Water Temperature
  • Weather Map
  • News
  • Weather Widgets
  • user-avatar
    Login

    Hourly Weather Sasaima

    Today, 23 September, Monday

    Time Temperature Precipitation Wind Pressure Humidity
    00:00 +14°C° 0.5 mm 1 mps 601 mmHg 87%
    01:00 +14°C° 0 mm 1 mps 601 mmHg 88%
    02:00 +13°C° 0.8 mm 1 mps 601 mmHg 88%
    03:00 +13°C° 0.8 mm 1 mps 601 mmHg 88%
    04:00 +13°C° 0.8 mm 1 mps 601 mmHg 88%
    05:00 +14°C° 0.4 mm 1 mps 602 mmHg 87%
    06:00 +14°C° 0.4 mm 1 mps 602 mmHg 85%
    07:00 +15°C° 0 mm 1 mps 603 mmHg 82%
    08:00 +18°C° 0.3 mm 1 mps 603 mmHg 79%
    09:00 +19°C° 0.3 mm 1 mps 604 mmHg 76%
    10:00 +20°C° 0.3 mm 1 mps 605 mmHg 73%
    11:00 +21°C° 0.4 mm 1 mps 604 mmHg 70%
    12:00 +21°C° 0.4 mm 2 mps 603 mmHg 67%
    13:00 +23°C° 0.4 mm 2 mps 603 mmHg 65%
    14:00 +23°C° 0.4 mm 2 mps 602 mmHg 64%
    15:00 +23°C° 0.4 mm 2 mps 602 mmHg 63%
    16:00 +22°C° 0.4 mm 1 mps 602 mmHg 62%
    17:00 +21°C° 0.4 mm 1 mps 601 mmHg 66%
    18:00 +19°C° 0.4 mm 1 mps 601 mmHg 70%
    19:00 +18°C° 0.4 mm 1 mps 601 mmHg 74%
    20:00 +16°C° 0.2 mm 1 mps 601 mmHg 75%
    21:00 +16°C° 0.2 mm 1 mps 602 mmHg 77%
    22:00 +16°C° 0.2 mm 1 mps 602 mmHg 78%
    23:00 +16°C° 0.1 mm 1 mps 602 mmHg 78%

    Tomorrow, 24 September, Tuesday

    Time Temperature Precipitation Wind Pressure Humidity
    00:00 +16°C° 0.1 mm 1 mps 602 mmHg 79%
    01:00 +15°C° 0.1 mm 1 mps 602 mmHg 79%
    02:00 +15°C° 0.3 mm 1 mps 601 mmHg 81%
    03:00 +14°C° 0.3 mm 1 mps 601 mmHg 83%
    04:00 +14°C° 0.3 mm 1 mps 601 mmHg 84%
    05:00 +14°C° 0.1 mm 1 mps 601 mmHg 83%
    06:00 +15°C° 0.1 mm 1 mps 602 mmHg 82%
    07:00 +15°C° 0.1 mm 0 mps 602 mmHg 80%
    08:00 +18°C° 0.2 mm 1 mps 603 mmHg 76%
    09:00 +20°C° 0.2 mm 1 mps 604 mmHg 72%
    10:00 +21°C° 0.2 mm 1 mps 605 mmHg 68%
    11:00 +22°C° 0.5 mm 1 mps 604 mmHg 67%
    12:00 +22°C° 0.5 mm 1 mps 604 mmHg 66%
    13:00 +22°C° 0.5 mm 1 mps 603 mmHg 65%
    14:00 +22°C° 0.6 mm 1 mps 603 mmHg 67%
    15:00 +21°C° 0.6 mm 1 mps 602 mmHg 69%
    16:00 +21°C° 0.6 mm 1 mps 602 mmHg 72%
    17:00 +20°C° 0.4 mm 1 mps 602 mmHg 75%
    18:00 +19°C° 0.4 mm 1 mps 601 mmHg 79%
    19:00 +16°C° 0.4 mm 1 mps 601 mmHg 83%
    20:00 +16°C° 0.1 mm 1 mps 602 mmHg 82%
    21:00 +16°C° 0.1 mm 1 mps 602 mmHg 80%
    22:00 +16°C° 0.1 mm 1 mps 602 mmHg 79%
    23:00 +15°C° 0.2 mm 1 mps 602 mmHg 80%

    Day after tomorrow, 25 September, Wednesday

    Time Temperature Precipitation Wind Pressure Humidity
    00:00 +15°C° 0.2 mm 1 mps 602 mmHg 81%
    01:00 +15°C° 0.2 mm 1 mps 601 mmHg 82%
    02:00 +15°C° 0.4 mm 1 mps 601 mmHg 83%
    03:00 +15°C° 0.4 mm 1 mps 601 mmHg 83%
    04:00 +14°C° 0.4 mm 0 mps 601 mmHg 83%
    05:00 +14°C° 0.4 mm 0 mps 602 mmHg 84%
    06:00 +14°C° 0.4 mm 0 mps 602 mmHg 84%
    07:00 +14°C° 0.4 mm 0 mps 603 mmHg 84%
    08:00 +15°C° 0.4 mm 0 mps 603 mmHg 83%
    09:00 +16°C° 0.4 mm 0 mps 603 mmHg 83%
    10:00 +16°C° 0.4 mm 0 mps 604 mmHg 82%
    11:00 +20°C° 0.5 mm 1 mps 604 mmHg 75%
    12:00 +21°C° 0.5 mm 1 mps 603 mmHg 69%
    13:00 +23°C° 0.5 mm 1 mps 603 mmHg 63%
    14:00 +23°C° 0.5 mm 1 mps 602 mmHg 64%
    15:00 +22°C° 0.5 mm 1 mps 602 mmHg 64%
    16:00 +22°C° 0.5 mm 1 mps 602 mmHg 65%
    17:00 +21°C° 1 mm 1 mps 601 mmHg 72%
    18:00 +19°C° 1 mm 1 mps 601 mmHg 79%
    19:00 +16°C° 1 mm 1 mps 601 mmHg 85%
    20:00 +16°C° 0.8 mm 1 mps 601 mmHg 87%
    21:00 +15°C° 0.8 mm 1 mps 602 mmHg 88%
    22:00 +15°C° 0.8 mm 1 mps 602 mmHg 89%
    23:00 +15°C° 0.3 mm 1 mps 602 mmHg 89%

    26 September, Thursday

    Time Temperature Precipitation Wind Pressure Humidity
    00:00 +14°C° 0.3 mm 1 mps 601 mmHg 90%
    01:00 +14°C° 0.3 mm 1 mps 601 mmHg 90%
    02:00 +14°C° 0.1 mm 1 mps 601 mmHg 90%
    03:00 +14°C° 0.1 mm 1 mps 601 mmHg 90%
    04:00 +14°C° 0.1 mm 1 mps 601 mmHg 90%
    05:00 +14°C° 0.2 mm 1 mps 601 mmHg 88%
    06:00 +15°C° 0.2 mm 1 mps 602 mmHg 87%
    07:00 +14°C° 0.2 mm 0 mps 602 mmHg 86%
    08:00 +16°C° 0.3 mm 1 mps 603 mmHg 82%
    09:00 +19°C° 0.3 mm 1 mps 603 mmHg 79%
    10:00 +20°C° 0.3 mm 1 mps 603 mmHg 76%
    11:00 +20°C° 0.6 mm 1 mps 603 mmHg 73%
    12:00 +20°C° 0.6 mm 2 mps 603 mmHg 71%
    13:00 +21°C° 0.6 mm 2 mps 602 mmHg 69%
    14:00 +20°C° 0.5 mm 2 mps 602 mmHg 68%
    15:00 +20°C° 0.5 mm 2 mps 602 mmHg 68%
    16:00 +21°C° 0.5 mm 1 mps 601 mmHg 68%
    17:00 +20°C° 0.3 mm 1 mps 601 mmHg 72%
    18:00 +18°C° 0.3 mm 1 mps 601 mmHg 76%
    19:00 +16°C° 0.3 mm 1 mps 601 mmHg 80%
    20:00 +16°C° 0.2 mm 1 mps 601 mmHg 80%
    21:00 +16°C° 0.2 mm 1 mps 602 mmHg 80%
    22:00 +15°C° 0.2 mm 1 mps 602 mmHg 80%
    23:00 +15°C° 0.3 mm 1 mps 602 mmHg 81%

    27 September, Friday

    Time Temperature Precipitation Wind Pressure Humidity
    00:00 +14°C° 0.3 mm 1 mps 601 mmHg 83%
    01:00 +14°C° 0.3 mm 1 mps 601 mmHg 85%
    02:00 +14°C° 0.1 mm 1 mps 601 mmHg 85%
    03:00 +14°C° 0.1 mm 1 mps 601 mmHg 85%
    04:00 +14°C° 0.1 mm 1 mps 600 mmHg 86%
    05:00 +14°C° 0.1 mm 1 mps 601 mmHg 84%
    06:00 +14°C° 0.1 mm 0 mps 602 mmHg 82%
    07:00 +14°C° 0.1 mm 0 mps 602 mmHg 81%
    08:00 +18°C° 0.3 mm 1 mps 603 mmHg 77%
    09:00 +20°C° 0.3 mm 1 mps 604 mmHg 73%
    10:00 +21°C° 0.3 mm 1 mps 604 mmHg 69%
    11:00 +21°C° 1.4 mm 1 mps 604 mmHg 72%
    12:00 +21°C° 1.4 mm 1 mps 603 mmHg 75%
    13:00 +21°C° 1.4 mm 1 mps 602 mmHg 77%
    14:00 +21°C° 1.2 mm 1 mps 602 mmHg 78%
    15:00 +21°C° 1.2 mm 1 mps 601 mmHg 79%
    16:00 +21°C° 1.2 mm 1 mps 601 mmHg 80%
    17:00 +19°C° 0.8 mm 1 mps 601 mmHg 83%
    18:00 +18°C° 0.8 mm 1 mps 600 mmHg 87%
    19:00 +15°C° 0.8 mm 1 mps 600 mmHg 91%
    20:00 +15°C° 0.5 mm 1 mps 600 mmHg 90%
    21:00 +15°C° 0.5 mm 1 mps 601 mmHg 89%
    22:00 +14°C° 0.5 mm 1 mps 601 mmHg 89%
    23:00 +14°C° 0.4 mm 1 mps 601 mmHg 89%

    28 September, Saturday

    Time Temperature Precipitation Wind Pressure Humidity
    00:00 +14°C° 0.4 mm 1 mps 601 mmHg 89%
    01:00 +14°C° 0.4 mm 1 mps 600 mmHg 89%
    02:00 +13°C° 0 mm 1 mps 600 mmHg 89%
    03:00 +13°C° 0 mm 1 mps 600 mmHg 89%
    04:00 +13°C° 0 mm 1 mps 600 mmHg 88%
    05:00 +14°C° 0.1 mm 1 mps 600 mmHg 86%
    06:00 +15°C° 0.1 mm 1 mps 601 mmHg 84%
    07:00 +16°C° 0.1 mm 1 mps 602 mmHg 81%
    08:00 +18°C° 0.1 mm 1 mps 603 mmHg 75%
    09:00 +20°C° 0.1 mm 1 mps 603 mmHg 70%
    10:00 +22°C° 0.1 mm 1 mps 604 mmHg 64%
    11:00 +21°C° 0.6 mm 2 mps 603 mmHg 66%
    12:00 +21°C° 0.6 mm 2 mps 603 mmHg 68%
    13:00 +23°C° 0.6 mm 2 mps 602 mmHg 70%
    14:00 +22°C° 1.1 mm 1 mps 601 mmHg 73%
    15:00 +21°C° 1.1 mm 1 mps 601 mmHg 77%
    16:00 +21°C° 1.1 mm 1 mps 600 mmHg 81%
    17:00 +17°C° 2.2 mm 0 mps 600 mmHg 84%
    18:00 +16°C° 2.2 mm 0 mps 600 mmHg 87%
    19:00 +15°C° 2.2 mm 0 mps 600 mmHg 90%
    20:00 +15°C° 0.6 mm 0 mps 600 mmHg 90%
    21:00 +16°C° 0.6 mm 1 mps 600 mmHg 89%
    22:00 +15°C° 0.6 mm 1 mps 601 mmHg 89%
    23:00 +15°C° 0.7 mm 1 mps 600 mmHg 90%
    Show more